Probability
0 0 0 0 0 0 0 0 0 0 0 0 0 0 0 0 0 0 0 0 0 0 0 0 0 0 0 0 0 0 0 0 0 0 0 0 0 0 0 0 0 0 0 0
0 0 0 0 0 0 0 0 0 0 0 0 0 0 1 1 1 0 0 0 0 0 0 0 0 0 0 0 0 0 0 0 0 0 0 0 0 0 0 0 0 0 0 0
0 0 0 0 0 0 0 0 0 0 0 0 0 0 1 2 2 1 0 0 0 0 0 0 0 0 0 0 0 0 0 0 0 0 0 0 0 0 0 0 0 0 0 0
0 0 0 0 0 0 0 0 0 0 0 0 0 0 1 2 2 1 0 0 0 0 0 0 0 0 0 0 0 0 0 0 0 0 0 0 0 0 0 0 0 0 0 0
0 0 0 0 0 0 0 0 0 0 0 0 0 0 0 1 1 0 0 0 0 0 0 0 0 0 0 0 0 0 0 0 0 0 0 0 0 0 0 0 0 0 0 0
0 0 0 0 0 0 0 0 0 0 0 0 0 0 0 0 0 0 0 0 0 0 0 0 0 0 0 0 0 0 0 0 0 0 0 0 0 0 0 0 0 0 0 0
0 0 0 0 0 0 0 0 0 0 0 0 0 0 0 0 0 0 0 0 0 0 0 0 0 0 0 0 0 0 0 0 0 0 0 0 0 0 0 0 0 0 0 0
0 0 0 0 0 0 0 0 0 0 0 0 0 0 0 0 0 0 0 0 0 0 0 0 0 0 0 0 0 0 0 0 0 0 0 0 0 0 0 0 0 0 0 0
0 0 0 0 0 0 0 0 0 0 0 0 0 0 0 0 0 0 0 0 0 0 0 0 0 0 0 0 0 0 0 0 0 0 0 0 0 0 0 0 0 0 0 0
0 0 0 0 0 0 0 0 0 0 0 0 0 0 0 0 0 0 0 0 0 0 0 0 0 0 0 0 0 0 0 0 0 0 0 0 0 0 0 0 0 0 0 0
0 0 0 0 0 0 0 0 0 0 0 0 0 0 0 0 0 0 0 0 0 0 0 0 0 0 0 0 0 0 0 0 0 0 0 0 0 0 0 0 0 0 0 0
0 0 0 0 0 0 0 0 0 0 0 0 0 0 0 0 0 0 0 0 0 0 0 0 0 0 0 0 0 0 0 0 0 0 0 0 0 0 0 0 0 0 0 0
0 0 0 0 0 0 0 0 0 0 0 0 0 0 0 0 0 0 0 0 0 0 0 0 0 0 0 0 0 0 0 0 0 0 0 0 0 0 0 0 0 0 0 0
0 0 0 0 0 0 0 0 0 0 0 0 0 0 0 0 0 0 0 0 0 0 0 0 0 0 0 0 0 0 0 0 0 0 0 0 0 0 0 0 0 0 0 0
0 0 0 0 0 0 0 0 0 0 0 0 0 0 0 0 0 0 0 0 0 0 0 0 0 0 0 0 0 0 0 0 0 0 0 0 0 0 0 0 0 0 0 0
0 0 0 0 0 0 0 0 0 0 0 0 0 0 0 0 0 0 0 0 0 0 0 0 0 0 0 0 0 0 0 0 0 0 0 0 0 0 0 0 0 0 0 0
0 0 0 0 0 0 0 0 0 0 0 0 0 0 0 0 0 0 0 0 0 0 0 0 0 0 0 0 0 0 0 0 0 0 0 0 0 0 0 0 0 0 0 0
0 0 0 0 0 0 0 0 0 0 0 0 0 0 0 0 0 0 0 0 0 0 0 0 0 0 0 0 0 0 0 0 0 0 0 0 0 0 0 0 0 0 0 0
0 0 0 0 0 0 0 0 0 0 0 0 0 0 0 0 0 0 0 0 0 0 0 0 0 0 0 0 0 0 0 0 0 0 0 0 0 0 0 0 0 0 0 0
0 0 0 0 0 0 0 0 0 0 0 0 0 0 0 0 0 0 0 0 0 0 0 0 0 0 0 0 0 0 0 0 0 0 0 0 0 0 0 0 0 0 0 0
0 0 0 0 0 0 0 0 0 0 0 0 0 0 0 0 0 0 0 0 0 0 0 0 0 0 0 0 0 0 0 0 0 0 0 0 0 0 0 0 0 0 0 0
0 0 0 0 0 0 0 0 0 0 0 0 0 0 0 0 0 0 0 0 0 0 0 0 0 0 0 0 0 0 0 0 0 0 0 0 0 0 0 0 0 0 0 0
0 0 0 0 0 0 0 0 0 0 0 0 0 0 0 0 0 0 0 0 0 0 0 0 0 0 0 0 0 0 0 0 0 0 0 0 0 0 0 0 0 0 0 0
0 0 0 0 0 0 0 0 0 0 0 0 0 0 0 0 0 0 0 0 0 0 0 0 0 0 0 0 0 0 0 0 0 0 0 0 0 0 0 0 0 0 0 0
0 0 0 0 0 0 0 0 0 0 0 0 0 0 0 0 0 0 0 0 0 0 0 0 0 0 0 0 0 0 0 0 0 0 0 0 0 0 0 0 0 0 0 0
0 0 0 0 0 0 0 0 0 0 0 0 0 0 0 0 0 0 0 0 0 0 0 0 0 0 0 0 0 0 0 0 0 0 0 0 0 0 0 0 0 0 0 0
0 0 0 0 0 0 0 0 0 0 0 0 0 0 0 0 0 0 0 0 0 0 0 0 0 0 0 0 0 0 0 0 0 0 0 0 0 0 0 0 0 0 0 0
Wind_Speed
1 2 1 1 1 2 3 4 5 4 3 3 5 7 8 10 10 10 9 8 7 5 3 3 2 2 2 3 3 4 4 4 4 4 4 4 5 5 5 5 5 5 5 5
2 2 2 3 3 2 2 1 1 1 1 0 3 7 8 10 11 10 9 8 7 5 4 3 2 1 2 3 3 3 4 3 3 4 4 5 4 5 5 6 6 6 6 6
1 3 3 3 3 1 1 1 1 1 1 3 5 7 9 9 9 9 9 8 6 5 4 2 1 2 2 2 2 3 3 3 3 3 4 4 4 5 6 5 6 7 7 7
1 2 1 3 1 1 2 2 2 1 2 4 6 6 5 7 9 9 8 7 6 5 4 2 2 2 2 2 3 3 3 3 3 3 4 4 5 5 5 5 6 6 7 7
3 2 1 2 1 1 1 1 1 2 4 6 8 6 4 4 6 7 7 7 5 4 4 3 3 2 3 3 3 3 3 3 3 3 3 4 5 4 4 5 6 6 6 7
3 2 2 2 3 2 2 1 0 3 5 6 5 3 2 5 7 8 7 6 5 5 4 4 3 3 4 3 4 3 3 3 3 3 3 4 4 4 4 5 5 6 7 7
2 1 2 3 4 1 1 3 1 3 5 5 3 3 5 8 8 7 7 7 6 5 4 3 3 4 4 3 3 2 3 3 4 4 3 3 4 4 4 5 6 6 7 6
2 1 3 4 2 1 3 1 2 3 4 5 5 7 8 9 9 9 8 6 6 5 4 3 3 4 4 3 2 2 3 4 4 4 4 4 4 4 4 5 6 5 5 6
3 4 3 2 1 1 2 2 2 3 4 8 8 7 8 8 8 7 7 6 5 5 4 3 3 3 4 2 2 3 4 5 4 5 5 4 4 5 4 4 4 4 4 4
1 2 1 1 1 2 2 2 3 5 7 7 8 8 8 8 7 7 6 5 5 5 4 3 2 3 3 3 3 4 5 4 4 5 5 5 4 4 4 3 3 3 3 3
0 1 1 2 1 2 4 5 6 5 5 7 9 8 8 7 6 6 5 4 5 5 4 3 3 3 3 3 4 4 4 4 4 4 4 4 4 4 3 2 1 2 1 1
4 4 3 2 1 3 5 5 6 6 6 6 8 8 7 6 5 6 5 5 5 4 4 3 3 3 3 3 4 4 4 3 3 2 2 3 3 4 7 5 5 3 2 2
3 2 3 2 3 4 5 5 6 6 7 7 6 7 7 6 5 5 5 5 5 4 4 4 4 3 3 3 4 4 3 3 2 2 2 2 2 2 3 4 7 7 5 3
3 5 4 2 3 4 6 7 7 6 6 7 6 7 7 6 5 6 6 5 5 5 4 4 4 3 3 4 4 3 3 2 2 1 1 1 2 2 2 2 2 3 4 3
2 3 4 4 5 5 6 7 8 6 6 6 6 6 7 7 6 5 5 5 5 4 4 4 4 3 3 4 4 3 2 2 1 1 1 1 1 1 1 1 1 1 1 2
4 5 6 6 6 6 6 6 6 6 6 6 6 6 6 6 5 5 5 6 6 5 4 5 4 4 4 4 4 2 1 2 2 2 1 1 1 1 1 1 1 1 1 1
6 5 5 5 6 6 6 6 6 6 6 6 6 6 6 6 5 4 4 5 5 5 5 5 4 4 4 4 4 2 2 1 2 2 1 1 1 1 2 2 2 2 2 2
5 6 7 8 8 7 6 5 6 6 6 6 7 7 7 6 6 5 5 4 4 3 3 4 5 4 4 4 3 2 2 2 2 1 1 2 2 2 2 2 3 4 3 2
4 5 5 6 6 7 6 6 6 6 6 7 8 7 7 6 6 5 5 6 5 4 4 4 5 5 4 4 4 2 2 2 1 1 1 2 2 2 3 3 3 4 4 3
4 5 5 5 5 5 6 5 6 5 6 7 7 6 6 5 5 6 6 5 5 5 4 5 5 4 4 4 5 3 2 2 2 1 1 1 2 2 3 3 3 3 3 4
5 5 5 5 4 4 5 6 7 6 6 7 8 8 7 6 6 6 5 4 4 4 5 6 5 4 4 4 4 3 3 3 2 2 2 2 2 2 3 3 3 4 4 4
4 4 4 4 4 3 4 5 6 7 7 7 7 6 6 6 6 5 5 5 4 6 5 4 4 6 6 5 3 4 4 4 3 3 3 3 3 3 3 4 4 4 5 5
4 4 4 4 4 3 3 4 5 6 7 8 8 8 7 7 6 6 5 5 4 7 6 5 7 9 9 6 4 5 5 5 4 4 4 4 4 4 4 5 5 5 5 5
3 3 3 3 3 3 3 3 4 5 5 6 7 8 7 5 5 6 5 6 9 9 7 7 10 11 9 5 5 5 5 5 5 5 5 5 5 5 5 5 6 6 6 7
3 3 3 3 3 3 3 3 3 3 4 3 4 5 6 6 6 6 6 6 9 9 7 8 12 11 8 6 6 7 6 6 6 5 6 6 6 6 6 6 6 6 6 6
3 3 3 3 3 3 3 3 3 3 3 3 3 4 4 4 5 5 5 7 9 9 8 6 7 8 7 8 8 8 7 7 7 7 7 7 7 7 7 7 9 7 7 7
2 2 2 1 1 2 3 3 3 4 4 5 4 4 5 5 5 6 7 6 7 7 7 7 7 7 8 8 8 8 8 8 8 8 8 8 7 7 8 9 8 7 7 7
Wind_Direction
246 251 150 102 69 124 145 172 179 219 210 236 197 168 154 147 143 143 144 144 142 142 134 112 89 60 47 40 36 38 40 35 27 22 28 31 30 31 33 33 32 29 35 38
18 7 71 57 20 53 89 119 172 175 248 7 122 122 134 147 151 151 152 150 146 143 135 125 113 81 59 46 35 40 40 31 24 31 36 37 33 36 41 37 34 39 42 45
292 315 19 4 333 17 61 40 120 215 238 130 123 138 151 157 158 155 155 152 148 143 139 137 123 98 71 56 49 46 37 33 34 38 43 37 42 45 42 39 45 47 44 49
100 52 176 255 319 83 97 34 30 79 109 126 124 121 127 147 151 150 149 145 141 139 134 125 103 88 81 73 65 56 44 37 35 41 47 45 51 50 43 43 47 48 48 50
111 120 279 304 347 19 103 358 22 117 113 109 112 91 79 118 133 140 141 138 137 134 130 117 101 95 90 75 66 63 52 41 35 48 56 54 54 51 49 56 52 46 44 48
107 125 215 273 314 312 111 310 299 139 141 145 131 127 180 141 124 123 124 126 126 123 114 104 93 94 89 77 66 57 47 41 42 55 63 62 60 59 57 63 60 57 50 43
110 136 276 293 303 8 120 264 268 151 153 156 152 162 140 127 119 122 122 122 122 115 107 105 104 99 89 78 65 51 55 58 57 57 64 69 67 66 67 67 66 60 55 43
126 127 262 323 10 117 224 268 110 131 137 127 115 112 118 123 126 125 121 118 115 108 98 94 102 106 96 83 66 68 70 66 61 57 59 69 75 71 67 69 69 59 56 47
173 203 250 317 322 347 135 123 121 127 126 128 126 127 126 127 129 126 124 121 115 113 106 92 97 108 110 95 87 86 77 71 67 64 55 57 73 78 70 66 71 62 59 55
73 312 334 1 24 48 85 109 115 124 131 132 133 134 132 133 132 129 126 125 121 118 114 106 101 108 115 107 101 95 83 73 67 69 62 54 54 62 73 69 73 72 68 61
74 277 13 15 43 94 92 95 100 100 116 133 133 135 136 138 139 135 130 127 127 131 132 128 121 110 111 112 108 96 86 79 73 69 71 65 58 50 63 57 90 115 109 102
212 216 175 214 180 125 116 117 123 116 110 122 134 137 135 135 136 136 136 133 132 131 132 131 126 124 123 122 115 105 90 78 74 79 76 77 79 61 48 56 60 84 125 133
191 153 140 130 107 117 122 125 125 123 129 129 127 132 133 132 136 137 138 142 148 149 145 141 136 134 138 133 125 119 116 110 95 87 85 80 76 79 57 33 46 55 60 76
137 116 106 117 125 119 118 116 110 105 113 122 125 126 127 127 133 143 154 160 154 145 142 144 144 148 151 140 131 124 116 116 117 114 109 102 98 93 90 75 37 11 15 31
94 122 138 124 111 107 110 113 113 114 116 117 123 131 136 139 148 156 156 149 141 141 145 149 154 161 151 144 140 138 135 137 138 135 128 130 124 112 106 99 86 350 343 348
102 98 113 123 131 128 124 128 135 142 141 139 140 145 148 148 148 146 148 150 151 161 165 159 166 171 156 152 150 146 148 160 158 148 145 150 155 158 168 182 222 264 278 287
128 137 143 146 152 152 156 158 160 159 156 157 159 150 140 135 134 142 153 160 163 168 166 164 170 167 158 158 155 153 153 164 162 154 162 177 184 194 204 211 230 251 260 250
171 172 169 167 167 165 164 160 159 161 165 166 152 144 147 153 162 168 161 143 138 148 174 176 169 161 161 162 159 157 159 165 172 188 195 200 209 210 207 218 234 247 261 261
146 152 156 162 166 164 164 166 168 168 161 152 155 162 168 171 170 161 149 148 161 183 205 188 173 167 170 176 167 166 170 171 178 197 206 213 215 215 216 225 236 243 248 250
136 143 149 153 154 159 166 166 160 158 161 157 156 160 167 174 166 159 158 174 195 197 187 174 172 178 187 188 177 175 185 194 207 220 210 213 226 234 235 237 240 246 247 247
139 138 142 148 158 164 165 162 161 165 166 164 167 176 182 180 170 164 167 194 217 192 178 179 180 188 193 191 186 189 200 211 217 221 221 227 237 242 243 247 249 248 249 251
145 143 146 151 154 165 170 166 167 166 164 171 176 176 173 177 178 181 196 206 203 183 178 186 194 201 201 194 194 203 214 220 224 223 225 229 234 245 251 250 250 252 251 251
152 151 152 161 170 174 161 162 169 169 175 181 183 183 186 190 183 185 211 215 193 189 189 201 205 206 205 201 204 211 219 224 228 229 233 236 237 240 247 254 253 252 252 252
151 156 162 155 138 137 164 190 180 181 185 188 192 191 185 185 200 210 209 196 193 193 201 212 214 215 206 204 209 217 223 228 230 232 235 238 240 241 244 250 256 256 253 254
154 150 138 134 151 184 199 184 169 177 180 193 201 198 194 194 201 208 200 200 199 197 210 217 217 215 210 211 217 222 226 229 232 232 234 237 241 244 246 248 250 254 254 253
154 163 173 184 190 191 179 169 180 193 191 202 218 210 204 206 207 201 198 203 202 203 210 216 213 212 214 218 223 227 230 234 236 236 238 239 243 244 246 248 251 249 249 251
146 146 145 148 189 181 176 181 192 203 202 204 219 219 208 207 206 207 206 207 206 209 214 217 215 214 216 220 226 229 231 233 236 237 238 240 242 244 246 247 248 247 246 249